Nos coordonnées

Nous sommes à votre écoute du lundi au dimanche de 10:00 à 19:00 au :

+32 (0)495 19 89 53

 

Adresse d'exploitation Adresse de facturation
Chaussée de Nivelles, 629
6230 Buzet
Belgique
Kouter 107/2
9000 Gent
Belgique

contact @ blackhelicopters.be (n'oubliez pas de supprimer les espaces)


Nous retrouver

Il est très fortement conseillé de nous appeler avant de venir sur le terrain, nous pouvons être en mission ou en vol!

 

La carte ci-dessous est interactive, cherchez vos itinéraires, déplacez la pour vous retrouver.

News

Votre panier

Le panier est vide

Météo Charleroi

METAR
EBCI 280150Z 24008KT 9999 FEW016 SCT045 07/07 Q0997 NOSIG =
EBCI 272300Z 2800/2906 26006KT 9999 SCT030 PROB30 TEMPO 2800/2803 4000 SHRA TEMPO 2804/2807 BKN006 PROB30 TEMPO 2812/2818 4000 SHRA BECMG 2902/2904 3000 BR PROB30 2904/2906 1200 MIFG
TAF
EBCI 272300Z 2800/2906 26006KT 9999 SCT030 PROB30 TEMPO 2800/2803 4000 SHRA TEMPO 2804/2807 BKN006 PROB30 TEMPO 2812/2818 4000 SHRA BECMG 2902/2904 3000 BR PROB30 2904/2906 1200 MIFG =
Lever / Coucher : 05:39 / 17:27 UTC (Buzet 2022-09-28)